Regional Weather Roundup
Issued by NWS Jackson, KY

Home | Current Version | Previous Version | Graphics & Text | Print | Product List | Glossary On
Versions: 1 2 3 4 5 6 7 8 9 10 11 12 13 14 15 16 17 18 19 20 21 22 23 24 25 26 27 28 29 30 31 32 33 34 35 36 37 38 39 40 41 42 43 44 45 46 47 48 49 50
608
ASUS43 KJKL 131610
RWRJKL

EAST KENTUCKY HOURLY WEATHER ROUNDUP
NATIONAL WEATHER SERVICE JACKSON KY
1100 AM EST WED DEC 13 2017

NOTE: "FAIR" INDICATES FEW OR NO CLOUDS BELOW 12,000 FEET WITH
NO SIGNIFICANT WEATHER AND/OR OBSTRUCTIONS TO VISIBILITY.

* THESE REPORTS ARE NOT UNDER NWS QUALITY CONTROL AND MAY NOT
  REPORT WEATHER SUCH AS PRECIPITATION AND FOG.

KYZ079-080-083-085-087-088-110-112-115-119-120-131700
...EASTERN KENTUCKY...

CITY           SKY/WX    TMP DP  RH WIND       PRES   REMARKS
JACKSON        SUNNY     29  10  45 VRB6      29.90F WCI  23
LONDON         SUNNY     31   3  30 SW12      29.93F WCI  22
SOMERSET*      SUNNY     32   9  37 S12       29.95F WCI  23
MONTICELLO*    SUNNY     35   7  31 S10G18    29.95F WCI  27
WILLIAMSBURG*  SUNNY     32   9  37 S7        29.94F WCI  26
MIDDLESBORO*   SUNNY     31   9  39 S10       29.97F WCI  23
HARLAN APT*    SUNNY     30   9  40 CALM      29.94F
PIKE CO APT*     N/A     28   6  39 S5        29.90F WCI  23
BIG SANDY APT* SUNNY     29   7  40 SW8       29.91F WCI  21
MOREHEAD APT*  CLOUDY    30   5  34 S10       29.89F WCI  21
$$

KYZ035-036-041-042-044-050-067-078-099-131700
...CENTRAL KENTUCKY...

CITY           SKY/WX    TMP DP  RH WIND       PRES   REMARKS
MT STERLING*   SUNNY     30  10  43 SW12G20   29.90F WCI  21
FLEMING/MASON* CLOUDY    27  11  49 SW15      29.86F WCI  16
DANVILLE*      SUNNY     32  12  43 SW13      29.90F WCI  22
LEXINGTON      SUNNY     31  10  41 S16G25    29.87F WCI  20
FRANKFORT      PTSUNNY   32   8  36 S16G23    29.85F WCI  21
LOUISVILLE     CLOUDY    34   9  35 S13       29.85F WCI  25
LEBANON*       PTSUNNY   32   7  34 S18G28    29.89F WCI  20
GLASGOW*       SUNNY     35  11  38 S13G18    29.92F WCI  26
BOWLING GREEN  SUNNY     38  13  35 S13       29.93F WCI  30
$$

KYZ091>093-OHZ055-061-077-WVZ005-015-034-035-042-131700
...SOUTHERN OHIO/WEST VIRGINIA...

CITY           SKY/WX    TMP DP  RH WIND       PRES   REMARKS
COVINGTON      CLOUDY    27  10  49 S10       29.81F WCI  17
COLUMBUS       PTSUNNY   22  12  65 S10       29.84F WCI  11
DAYTON         CLOUDY    23  13  65 S12G23    29.77F WCI  12
WILMINGTON     CLOUDY    24  12  60 SW14      29.81F WCI  12
HUNTINGTON     CLOUDY    26  10  50 S8        29.90F WCI  18
CHARLESTON     CLOUDY    26   6  42 W10       29.91F WCI  16
PINEVILLE*       N/A     26   6  43 MISG      29.93F
BECKLEY        MOSUNNY   20   3  48 W7        29.83F WCI  11
BLUEFIELD      MOSUNNY   20   0  41 W9G16     29.82F WCI   9
LOGAN CO APT*  CLOUDY    25   7  46 CALM      29.88F
$$

VAZ002-007-008-TNZ017-027-036-066-071-131700
...SOUTHWEST VIRGINIA/EAST TENNESSEE...

CITY           SKY/WX    TMP DP  RH WIND       PRES   REMARKS
WISE*          SUNNY     28   7  40 SW12      29.86F WCI  18
JONESVILLE*      N/A     28   5  37 S5        29.98F WCI  23
ABINGDON*      SUNNY     28   7  41 W12       29.91F WCI  18
BRISTOL        MOSUNNY   29   6  38 SW8       29.96F WCI  21
MORRISTOWN*    SUNNY     32   1  27 SW5       29.96F WCI  27
SEVIERVILLE*   SUNNY     34  12  40 CALM      29.99F
KNOXVILLE      MOSUNNY   35  13  40 SW7       30.00F WCI  29
LAFOLLETTE*    SUNNY     32   5  32 VRB6      30.01F WCI  26
OAK RIDGE      SUNNY     32   8  36 VRB6      30.01F WCI  26
CROSSVILLE     SUNNY     32   4  30 S8        29.94F WCI  25
NASHVILLE      MOSUNNY   39  11  31 S15       29.97F WCI  31
$$

...KEY TO REMARKS...
VSB - VISIBILITY IN MILES
WCI - WIND CHILL INDEX
HX  - HEAT INDEX

$$




USA.gov is the U.S. government's official web portal to all federal, state and local government web resources and services.